www.pogodaiklimat.ru

Погода и климат >> Архив погоды >> Индонезия >> Парох


ПОГОДА в Парохе

  • Прогноз погоды в Парохе
  • Монитор погоды в Парохе

АРХИВ ПОГОДЫ в Парохе

Время (UTC), дата Ветер
(напр.,м/с)
 
Видим.   Явления Облачность Т
(С)
Тd
(С)
f
(%)
Тe
(С)
Тes
(С)
Комфортность P
(гПа)
Po
(гПа)
Тmin
(С)
Tmax
(С)
R
(мм)
R24
(мм)
S
(см)
12 10.07 Ю 1 10 км 4/1 420 м
[Cu hum Ci fib]
+27.6 +24.1 81 +38 +38 очень
душно
1010.9 1009.2 +34.2
00 11.07 В 2 10 км 3/1 420 м
[Cu med, cong Ci fib]
+26.0 +24.0 89 +36 +38 очень
душно
1013.5 1011.7 +23.6
03 11.07 10 км н/о +31.0 +24.4 68 +43 +53 опасность
перегрева
1013.6 1011.9
06 11.07 З 3 10 км 8/4 420 м
[Cu med, cong Ac trans Ci fib]
+32.1 +24.7 65 +45 +51 опасность
перегрева
1011.7 1010.0
09 11.07 З 3 10 км 8/4 420 м
[Cu med, cong Ac trans Ci fib]
+30.6 +24.0 68 +42 +44 опасность
перегрева
1011.3 1009.6
12 11.07 Ю 1 10 км 8/4 420 м
[Cu med, cong Ac trans Ci fib]
+28.2 +24.7 81 +40 +40 очень
душно
1012.4 1010.7 +32.4
00 12.07 штиль 0 6000 м слаб. ливневой дождь, в посл. час гроза 10/5 420 м
[Cu med, cong As op]
+22.6 +21.9 96 +30 +31 очень
душно
1014.9 1013.1 +22.4 7
03 12.07 ЮЗ 1 8000 м слаб. дождь 10/5 420 м
[Cu med, cong As op]
+23.5 +23.0 97 +31 +33 очень
душно
1014.7 1012.9 5
06 12.07 Ю 2 9000 м слаб. дождь 10/8 420 м
[Cu med, cong As op]
+25.4 +24.2 93 +35 +36 очень
душно
1012.8 1011.0 0.3
09 12.07 ЮВ 2 10 км {дождь} 10/1 420 м
[Cu hum Ac As Ci fib]
+27.2 +24.0 83 +38 +40 очень
душно
1010.8 1009.1 0.0
12 12.07 штиль 0 10 км {дождь} 8/0
[Ac trans Ci fib]
+25.2 +23.5 90 +34 +34 очень
душно
1011.8 1010.0 +27.4 0.0
00 13.07 ЮВ 1 10 км 4/1 420 м
[Cu med, cong Ac trans Ci fib]
+24.8 +23.5 92 +33 +35 очень
душно
1013.7 1011.9 +22.6 5
03 13.07 ЮВ 2 10 км 4/3 420 м
[Cu hum Ac trans Ci fib]
+30.2 +23.8 69 +42 +53 опасность
перегрева
1013.4 1011.7
06 13.07 З 3 10 км гроза без осадков 9/5 420 м
[Cb cap Ci fib]
+31.8 +24.5 65 +44 +50 опасность
перегрева
1011.3 1009.6
09 13.07 В 1 10 км {гроза} 10/5 420 м
[Cb cap Ac As Ci fib]
+26.0 +23.9 88 +36 +37 очень
душно
1009.8 1008.1
12 13.07 ЮВ 1 10 км {гроза} 9/5 420 м
[Cu med, cong Ac trans Ci fib]
+25.1 +22.8 87 +33 +33 очень
душно
1011.1 1009.3 +32.2
00 14.07 ЮВ 2 10 км 9/1 420 м
[Cu hum Ac trans Ci fib]
+23.8 +23.0 95 +32 +33 очень
душно
1012.4 1010.5 +21.8
03 14.07 ЮВ 4 10 км 9/1 420 м
[Cu hum Ac trans Ci fib]
+30.2 +22.9 65 +40 +46 очень
душно
1011.7 1010.0
06 14.07 ЮВ 3 10 км 9/3 420 м
[Cu hum Ac trans Ci fib]
+32.8 +22.0 53 +41 +47 опасность
перегрева
1009.2 1007.5
09 14.07 З 4 10 км 6/3 420 м
[Cu med, cong Ac trans Ci fib]
+31.2 +24.3 67 +43 +45 опасность
перегрева
1008.4 1006.7
12 14.07 штиль 0 10 км 5/1 420 м
[Cu hum Ac trans Ci fib]
+28.0 +23.3 76 +38 +38 очень
душно
1009.3 1007.6 +33.6
00 15.07 ЮВ 2 10 км 5/0
[Ci fib]
+24.2 +21.6 85 +31 +33 очень
душно
1011.3 1009.5 +23.0
03 15.07 Ю 4 10 км 6/0
[Ci fib]
+29.6 +22.4 65 +39 +49 очень
душно
1011.5 1009.8
06 15.07 Ю 2 10 км 6/1 420 м
[Cu hum Ci fib]
+32.6 +21.4 52 +41 +55 опасность
перегрева
1009.5 1007.8
09 15.07 Ю 2 10 км 6/3 420 м
[Cu hum Ci fib]
+32.2 +21.9 55 +41 +44 опасность
перегрева
1007.8 1006.1
12 15.07 ЮВ 1 10 км 9/1 420 м
[Cu hum Ac trans Ci fib]
+27.7 +23.1 76 +37 +37 очень
душно
1009.8 1008.1 +33.0
00 16.07 ЮВ 3 10 км 8/0
[Ci fib]
+24.3 +21.4 84 +31 +32 очень
душно
1010.9 1009.1 +22.4
03 16.07 Ю 3 10 км 9/0
[Ci sp]
+28.6 +21.7 66 +37 +47 очень
душно
1011.1 1009.4
06 16.07 Ю 3 10 км 8/0
[Ci sp]
+32.6 +20.4 49 +39 +52 опасность
солнечного
удара
1008.7 1007.0
09 16.07 Ю 2 10 км 6/0
[Ci fib]
+32.2 +19.9 48 +38 +42 очень
душно
1006.7 1005.0
12 16.07 Ю 1 10 км 6/0
[Ci fib]
+27.6 +22.5 74 +36 +36 очень
душно
1008.2 1006.5 +33.6
00 17.07 ЮВ 1 10 км 6/0
[Ci fib]
+24.2 +22.3 89 +31 +34 очень
душно
1010.5 1008.7 +23.0
03 17.07 ЮВ 3 10 км 6/0
[Ci fib]
+30.0 +22.3 63 +39 +50 очень
душно
1010.1 1008.4
06 17.07 Ю 2 10 км 8/1 420 м
[Cu hum Ci fib]
+32.8 +21.3 51 +41 +54 опасность
перегрева
1007.8 1006.1
09 17.07 З 3 10 км 9/1 420 м
[Cu hum Ci fib]
+31.0 +24.1 67 +43 +46 опасность
перегрева
1006.2 1004.5

 

Местоположение метеостанции Парох (Индонезия): широта 1.77 долгота 109.30 высота над уровнем моря 15 м.

В архиве по умолчанию представлена погода в Парохе за последнюю неделю. Архивные данные за месяц целиком и за предыдущие месяцы, начиная с января 2011 года, Вы можете получить, выбрав интересующий диапазон дат из раскрывающегося списка и нажав кнопку "Ввод!".


*Определитесь, кто Вы:
робот инопланетянин человек

Внимание! Время в таблицах - всемирное. Для получения местного времени необходимо прибавить поправку, которая равна 7 ч.

Смотрите также архив погоды в соседних городах и на ближайших метеорологических станциях:

Погода в Кучинге (Малайзия) (119 км)
Погода в Понтианаке (Индонезия) (214 км)
Погода в Ранаи (Индонезия) (263 км)
Погода в Сибу (Малайзия) (288 км)
Погода в Синтанге (Индонезия) (309 км)
Погода в Нангапинохе (Индонезия) (363 км)
Погода в Таремпе (Индонезия) (374 км)
Погода в Кетапанге (Индонезия) (409 км)
Погода на Путусиббау (Индонезия) (418 км)
Погода в Бинталу (Малайзия) (444 км)

Пояснения к столбцам:

Ветер - указаны скорость ветра в м/с - средняя за 10 мин, порывы в срок и между сроками (в фигурных скобках) и направление, откуда дует ветер: С - северный, СВ - северо-восточный, В - восточный, ЮВ - юго-восточный, Ю - южный, ЮЗ - юго-западный, З - западный, СЗ - северо-западный.
Видимость - горизонтальная дальность видимости в метрах или километрах. При видимости от 1 до 10 км при отсутствии осадков обычно наблюдается дымка, при ухудшении видимости до 1 км и менее - туман. В сухую погоду видимость может ухудшаться дымом, пылью или мглою.
Явления - указаны атмосферные явления, наблюдавшиеся в срок или в последний час перед сроком; фигурными скобками обозначены явления, наблюдавшиеся между сроками (за 1-3 часа до срока); квадратными скобками обозначены град или гололедные отложения с указанием их диаметра в мм.
Облачность - указаны через наклонную черту общая и нижняя облачность в баллах и высота нижней границы облаков в метрах; квадратными скобками обозначены формы облаков: Ci - перистые, Cs - перисто-слоистые, Cc - перисто-кучевые, Ac - высококучевые, As - высокослоистые, Sc - слоисто-кучевые, Ns - слоисто-дождевые, Cu - кучевые, Cb - кучево-дождевые. Подробнее классификацию облаков см. в Атласе облаков (PDF).
T - Температура воздуха - температура, измеренная на высоте 2 м над землей.
Td - Температура точки росы - температура, при понижении до которой содержащийся в воздухе водяной пар достигнет насыщения.
f - Относительная влажность воздуха - влажноcть воздуха, измеренная на высоте 2 м над землей.
Te - Эффективная температура - температура, которую ощущает одетый по сезону человек в тени. Характеристика душности погоды. При расчете учитывается влияние влажности воздуха и скорости ветра на теплоощущения человека.
Tes - Эффективная температура на солнце - температура, которую ощущает человек, с поправкой на солнечный нагрев. Характеристика знойности погоды. Зависит от высоты солнца над горизонтом, облачности и скорости ветра. Ночью, в пасмурную погоду, а также при ветре 12 м/с и более поправка равна нулю.
P - Атмосферное давление - приведенное к уровню моря атмосферное давление.
Po - Атмосферное давление - измеренное на уровне метеостанции атмосферное давление.
Tmin - Минимальная температура - минимум температуры воздуха на высоте 2 м над землей.
Tmax - Максимальная температура - максимум температуры воздуха на высоте 2 м над землей.
R - Количество осадков - Количество выпавших осадков за период времени, мм. При наведении курсора мыши на число - период времени, за который выпало указанное количество осадков.
R24 - Количество осадков - Количество выпавших осадков за 24 часа, мм.
S - Снежный покров - Высота снежного покрова, см. При наведении курсора мыши на число - состояние снежного покрова и степень покрытия местности в баллах.